TimeMST,TemperatureF,Dew PointF,Humidity,Sea Level PressureIn,VisibilityMPH,Wind Direction,Wind SpeedMPH,Gust SpeedMPH,PrecipitationIn,Events,Conditions,WindDirDegrees,DateUTC
12:53 AM,61.0,30.0,31,30.02,10.0,NE,5.8,-,N/A,,Clear,40,2013-03-03 07:53:00
1:53 AM,57.0,30.9,37,30.02,10.0,Calm,Calm,-,N/A,,Clear,0,2013-03-03 08:53:00
2:53 AM,55.9,32.0,40,30.01,10.0,Calm,Calm,-,N/A,,Clear,0,2013-03-03 09:53:00
3:53 AM,54.0,32.0,43,29.99,10.0,Calm,Calm,-,N/A,,Clear,0,2013-03-03 10:53:00
4:53 AM,51.1,32.0,48,29.98,10.0,NE,3.5,-,N/A,,Clear,50,2013-03-03 11:53:00
5:53 AM,51.1,32.0,48,29.99,10.0,Calm,Calm,-,N/A,,Clear,0,2013-03-03 12:53:00
6:53 AM,53.1,30.9,43,30.00,10.0,ENE,3.5,-,N/A,,Clear,60,2013-03-03 13:53:00
7:53 AM,54.0,33.1,45,30.01,10.0,East,5.8,-,N/A,,Clear,80,2013-03-03 14:53:00
8:53 AM,62.1,36.0,38,30.00,10.0,East,5.8,-,N/A,,Clear,100,2013-03-03 15:53:00
9:53 AM,66.9,30.9,26,30.00,10.0,SE,9.2,-,N/A,,Clear,140,2013-03-03 16:53:00
10:53 AM,66.9,32.0,27,29.99,10.0,SE,8.1,-,N/A,,Clear,140,2013-03-03 17:53:00
11:53 AM,68.0,30.0,24,29.99,10.0,South,9.2,-,N/A,,Clear,180,2013-03-03 18:53:00
12:29 PM,69.8,33.8,27,30.03,10.0,SW,5.8,-,N/A,,Clear,230,2013-03-03 19:29:00
12:53 PM,69.1,33.1,26,29.97,10.0,Calm,Calm,-,N/A,,Clear,0,2013-03-03 19:53:00
1:53 PM,71.1,32.0,24,29.92,10.0,SE,5.8,-,N/A,,Clear,140,2013-03-03 20:53:00
2:53 PM,72.0,30.9,22,29.91,10.0,Calm,Calm,-,N/A,,Clear,0,2013-03-03 21:53:00
3:53 PM,73.0,26.1,17,29.90,10.0,SSW,6.9,-,N/A,,Clear,210,2013-03-03 22:53:00
4:53 PM,72.0,26.1,18,29.91,10.0,SW,8.1,-,N/A,,Clear,220,2013-03-03 23:53:00
5:53 PM,71.1,28.9,21,29.89,10.0,Calm,Calm,-,N/A,,Clear,0,2013-03-04 00:53:00
6:53 PM,69.1,30.9,24,29.88,10.0,SE,3.5,-,N/A,,Partly Cloudy,140,2013-03-04 01:53:00
7:53 PM,64.9,35.1,33,29.89,10.0,ESE,3.5,-,N/A,,Overcast,120,2013-03-04 02:53:00
8:53 PM,64.9,33.1,31,29.86,10.0,East,6.9,-,N/A,,Overcast,90,2013-03-04 03:53:00
9:53 PM,64.9,33.1,31,29.86,10.0,East,5.8,-,N/A,,Partly Cloudy,80,2013-03-04 04:53:00
10:53 PM,63.0,33.1,33,29.86,10.0,East,3.5,-,N/A,,Partly Cloudy,80,2013-03-04 05:53:00
11:53 PM,57.9,34.0,41,29.84,10.0,Calm,Calm,-,N/A,,Scattered Clouds,0,2013-03-04 06:53:00